Regional Weather Roundup
Issued by NWS Grand Forks, ND

Home | Current Version | Previous Version | Text Only | Print | Product List | Glossary Off
Versions: 1 2 3 4 5 6 7 8 9 10 11 12 13 14 15 16 17 18 19 20 21 22 23 24 25 26 27 28 29 30 31 32 33 34 35 36 37 38 39 40 41 42 43 44 45 46 47 48 49 50

000
ASUS43 KFGF 252210
RWRFGF
PRAIRIE TO PINES  WEATHER ROUNDUP
NATIONAL WEATHER SERVICE EASTERN NORTH DAKOTA/GRAND FORKS ND
500 PM CDT WED APR 25 2018

 **SATELLITE DATA USED TO AUGMENT SKY COVER AT AUTOMATED STATIONS**
 *****  WEATHER ACROSS EASTERN NORTH DAKOTA  *****

CITY           SKY/WX    TMP DP  RH WIND       PRES   REMARKS
GRAND FORKS    PTSUNNY   63  37  38 SW22G32   29.86F
GRAND FRKS AFB FAIR      64  31  29 S23G29    29.85F
GRAND FRKS NWS   N/A     63  38  39 SW24      29.85F
DEVILS LAKE    FAIR      57  29  34 SW16      29.82F
FARGO          FAIR      65  29  25 SW21G31   29.94F
WAHPETON ARPT  FAIR      61  27  27 S15       29.99F
$$

 ***** WEATHER ACROSS CENTRAL AND WESTERN NORTH DAKOTA  *****

CITY           SKY/WX    TMP DP  RH WIND       PRES   REMARKS
BISMARCK       FAIR      69  24  18 SW20G28   29.86F
MINOT          FAIR      71  21  15 SW22G30   29.76F
JAMESTOWN      FAIR      64  27  24 SW22G33   29.88F
MINOT AFB      FAIR      70  27  20 W20G28    29.75F
GARRISON         N/A     68  27  21 W17       29.79F
WILLISTON      FAIR      67  29  24 W20G26    29.81F
DICKINSON      FAIR      69  23  17 W25       29.83F
HETTINGER      FAIR      68  27  21 SW17G26   29.88F
$$

 *****  OTHER AIRPORT OBSERVATIONS IN OUR AREA  *****

CITY           SKY/WX    TMP DP  RH WIND       PRES   REMARKS
WALHALLA       NOT AVBL
GRAFTON AIRPOR FAIR      66  28  24 SW21G32   29.84F
VALLEY CITY AR FAIR      63  30  29 SW22G29   29.92F
CANDO          FAIR      70  27  19 SW24G31   29.80F
CAVALIER APRT    N/A     66  30  26 SW23G30   29.78F
GWINNER          N/A     63  30  29 SW21      29.96F
SHEYENNE NWR     N/A     65  31  28 SW15      29.95S
ROLLA          FAIR      64  34  32 SW24G33   29.75F
 ***** THE ABOVE OBSERVATIONS ARE NON NWS ARE NOT QUALITY
       CONTROLLED AND MAY MIS-REPORT RAIN FOR SNOW...
$$

  *****  WEATHER ACROSS NORTHERN MINNESOTA  *****

CITY           SKY/WX    TMP DP  RH WIND       PRES   REMARKS
FLAG ISLAND    FAIR      54  30  40 S14G22    29.83F
WARROAD        FAIR      61  39  44 SW16G29   29.86F
ROSEAU         FAIR      61  39  44 SW23G31   29.85F
HALLOCK        FAIR      66  21  18 S28G37    29.80F
THF RVR FALLS  FAIR      61  34  36 SW23G29   29.90F
BAUDETTE       FAIR      60  34  37 SW18G28   29.88F
WASKISH        CLOUDY    52  32  46 SW12      29.93F
CROOKSTON      FAIR      63  34  34 SW24G30   29.90F
STEPHEN NDAWN    N/A     63  34  34 S20         N/A
GREENBUSH NDAW   N/A     61  41  48 S18         N/A
$$
  *****  WEATHER ACROSS CENTRAL AND WEST MINNESOTA  *****

CITY           SKY/WX    TMP DP  RH WIND       PRES   REMARKS
FOSSTON        FAIR      59  30  33 S22       29.95F
BEMIDJI        FAIR      58  26  28 SW12G18   29.95F
PARK RAPIDS    FAIR      59  28  30 SW14G23   29.98F
ELBOW LAKE     FAIR      58  32  37 SW12      30.02F
WADENA         FAIR      57  30  35 W8        30.01F
DETROIT LAKES  FAIR      59  32  36 SW13G21   29.99F
MOORHEAD       FAIR      63  30  29 SW18G25   29.96F
FERGUS FALLS   FAIR      61  34  36 SW12G18   29.98F
MORRIS MN      FAIR      59  34  38 S7        30.03F
STAPLES        FAIR      57  25  28 S10       30.02F
$$
  *****  WEATHER ELSEWHERE ACROSS MINNESOTA  *****

CITY           SKY/WX    TMP DP  RH WIND       PRES   REMARKS
DULUTH         FAIR      57  22  25 S8        29.99F
INTRNTL FALLS  FAIR      61  26  26 SW14G21   29.90F
ELY            FAIR      57  21  24 SW10      29.95F
CLOQUET        FAIR      57  12  17 S8        30.00F
WHEATON        FAIR      63  27  25 SW10      30.03F
BRAINERD       FAIR      60  24  25 W13       30.02F
HIBBING        FAIR      58  24  27 SW12G17   29.98F
ALEXANDRIA     FAIR      59  29  31 S13       30.04F
SAINT CLOUD    FAIR      57  21  24 SW7       30.04F
MINNEAPOLIS    FAIR      59  25  27 VRB3      30.06F
$$

  *****  WEATHER ACROSS SOUTH DAKOTA  *****

CITY           SKY/WX    TMP DP  RH WIND       PRES   REMARKS
SIOUX FALLS    FAIR      60  26  27 S3        30.07F
BROOKINGS      FAIR      57  30  35 VRB6      30.05
WATERTOWN      FAIR      58  31  35 SW14      30.03F
HURON          FAIR      62  33  33 S13       30.02F
SISSETON         N/A     63  31  30 SW13      30.00F
ABERDEEN       FAIR      66  29  24 S17G24    29.98F
MITCHELL       FAIR      61  33  35 SW12      30.05F
PIERRE         FAIR      68  24  19 S21       29.96F
MOBRIDGE       FAIR      67  31  26 S17       29.90F
RAPID CITY     FAIR      75  11   8 W12       29.89F
$$

  *****  SOME WEATHER IN NEARBY STATES *****

CITY           SKY/WX    TMP DP  RH WIND       PRES   REMARKS
GLASGOW MT     FAIR      68  26  20 N21G32    29.91R
GREAT FALLS MT CLOUDY    51  33  50 N14       30.18R
CHEYENNE WY    FAIR      62  27  26 S12G17    30.11F
SCOTTSBLUFF NE FAIR      68  23  18 S9        30.03F
OMAHA NE       FAIR      64  32  30 NW5       30.08F
DES MOINES IA  FAIR      66  25  21 N5        30.04F
DAVENPORT IA   FAIR      65  29  25 NE12      30.03F
CHICAGO IL     FAIR      49  30  48 NE12      30.05S
EAU CLAIRE WI  FAIR      58  24  27 W6        30.03F
LA CROSSE WI   FAIR      61  29  29 W9        30.04F
$$

  *****  SOME NATIONAL WEATHER *****

CITY           SKY/WX    TMP DP  RH WIND       PRES   REMARKS
LA GUARDIA NY  FOG       53  51  93 NE9       29.68S VSB 1
RALEIGH NC     FAIR      68  58  70 NW5       29.74S
ATLANTA GA     CLOUDY    66  53  63 NW14      29.91R
NEW ORLEANS LA FAIR      82  58  43 N7        29.95F
OKLAHOMA CITY  CLOUDY    52  43  71 NW18      30.11F
ALBUQUERQUE NM FAIR      70  27  20 CALM      30.15F
SALT LAKE CITY FAIR      73  25  16 N9        30.13F
LOS ANGELES CA FAIR      63  50  62 W12       30.05F
BOISE ID       FAIR      75  31  19 W8        30.11F
SEATTLE WA     FAIR      73  44  35 N10       30.09F
$$

*** WEATHER ACROSS MANITOBA...SASKATCHEWAN AND ONTARIO ***
                ***ONTARIO***

CITY           SKY/WX    TMP DP  RH WIND       PRES   REMARKS
GERALDTON      MOSUNNY   50  21  32 SW10G18   29.90F
THUNDER BAY    CLOUDY    48  23  37 S7        29.97F
SIOUX LOOKOUT  CLOUDY    57  27  30 SW15G23   29.83F
TORONTO        LGT RAIN  48  46  93 N18G26    29.76S FOG
BIG TROUT LK   PTSUNNY   52  28  40 W8        29.62S
PICKLE LAKE    CLOUDY    55  25  30 SW18G30   29.72F
DRYDEN         MOSUNNY   61  25  25 SW22G29   29.82F
KENORA         CLOUDY    57  34  41 S16       29.82F
$$
                *** MANITOBA***

CITY           SKY/WX    TMP DP  RH WIND       PRES   REMARKS
BRANDON        CLOUDY    66  37  34 NW22G32   29.73F
DAUPHIN        SUNNY     59  30  33 N21G28    29.80R
ISLAND LAKE    PTSUNNY   48  27  43 NW10      29.70R
PILOT MOUND      N/A     68  28  22 SW24G31     N/A
THE PAS        MOSUNNY   48  28  46 N14G20    29.85R
THOMPSON       PTSUNNY   37  25  60 N20G26    29.86R
WINNIPEG       CLOUDY    68  28  22 SW22G30   29.73F
LYNN LAKE      CLOUDY    36  25  64 N15       29.95R
CHURCHILL      LGT SNOW  16  12  86 N30       29.97R DRFTSNOWWCI  -4
GILLAM         LGT SNOW  30  27  86 N21G32    29.82R WCI  17
$$
                ***SASKATCHEWAN***

CITY           SKY/WX    TMP DP  RH WIND       PRES   REMARKS
ESTEVAN        CLOUDY    66  30  26 N21G26    29.78R
KINDERSLEY     PTSUNNY   59  28  31 N15G28    30.02S
LLOYDMINSTER   MOSUNNY   59  21  23 NW18G26   30.04R
PRINCE ALBERT  MOSUNNY   59  27  29 N21       29.97R
REGINA         PTSUNNY   63  30  29 N20G29    29.90R
YORKTON        SUNNY     57  32  38 N18G25    29.85R
N. BATTLEFORD  MOSUNNY   59  21  23 NW15G24   30.02R
LA RONGE       MOSUNNY   54  25  32 N16G23    29.97R
SASKATOON      PTSUNNY   61  25  25 N20G28    29.98R
SWIFT CURRENT  PTSUNNY   59  28  31 NW21G31   29.98S
$$
NOTE: THESE ARE AUTOMATED STATIONS WITH LIMITED QUALITY CONTROL
      "FAIR" INDICATES FEW OR NO CLOUDS BELOW 12,000 FEET WITH NO
      SIGNIFICANT WEATHER AND/OR OBSTRUCTIONS TO VISIBILITY.
      SKY/WX - SKY CONDITION AND SIGNIFICANT WEATHER.
      TMP - AIR TEMPERATURE.    DP   - DEWPOINT TEMPERATURE.
      RH  - RELATIVE HUMIDITY.  PRES - PRESSURE.
      HX  - HEAT INDEX.         WCI  - WIND CHILL INDEX.
$




USA.gov is the U.S. government's official web portal to all federal, state and local government web resources and services.